Regional Weather Roundup
Issued by NWS Portland, ME

Current Version | Previous Version | Text Only | Print | Product List | Glossary Off
Versions: 1 2 3 4 5 6 7 8 9 10 11 12 13 14 15 16 17 18 19 20 21 22 23 24 25 26 27 28 29 30 31 32 33 34 35 36 37 38 39 40 41 42 43 44 45 46 47 48 49 50
000 ASUS41 KGYX 280410 RWRGYX WEATHER ROUNDUP FOR MAINE AND NEW HAMPSHIRE NATIONAL WEATHER SERVICE GRAY ME 1200 AM EDT FRI JUL 28 2017 MEZ002-005-006-010-012-015-018-020-021-024-026-027-029-280500- MAINE CITY SKY/WX TMP DP RH WIND PRES REMARKS PORTLAND PTCLDY 66 63 90 CALM 29.81F SANFORD N/A 64 63 96 SW3 29.83S WISCASSET PTCLDY 62 60 93 CALM 29.81F ROCKLAND CLEAR 62 61 96 SW5 29.79S FRYEBURG CLEAR 66 63 90 W7 29.82S LEWISTONAUBURN CLEAR 63 62 97 N5 29.81S AUGUSTA PTCLDY 63 62 97 CALM 29.80S WATERVILLE FOG 62 62 100 CALM 29.77S VSB 1/4 BANGOR FOG 61 60 97 S6 29.78F VSB 3/4 GREENVILLE N/A N/A N/A N/A CALM 29.78S MILLINOCKET CLOUDY 64 32 30 CALM 29.77S HOULTON CLOUDY 64 63 96 SW7 29.73F PRESQUE ISLE CLOUDY 64 62 93 S3 29.73F FRENCHVILLE MOCLDY 61 59 93 SW6 29.71F CARIBOU CLOUDY 65 62 90 SW5 29.71F $$ NHZ002-005-008-009-011-012-014-280500- NEW HAMPSHIRE CITY SKY/WX TMP DP RH WIND PRES REMARKS PORTSMOUTH PTCLDY 66 64 94 SW7 29.81F FOG ROCHESTER CLEAR 64 62 93 CALM 29.82F NASHUA CLEAR 64 64 100 CALM 29.85F MANCHESTER CLOUDY 66 62 87 S5 29.83F CONCORD PTCLDY 62 60 93 CALM 29.84F LACONIA MOCLDY 65 63 93 SW3 29.84F PLYMOUTH N/A 60 59 96 CALM 29.84S FOG BERLIN MOCLDY 57 54 89 CALM 29.84S FOG WHITEFIELD PTCLDY 60 57 89 CALM 29.85S JAFFREY MOCLDY 65 65 100 SW6 29.89F KEENE PTCLDY 63 63 100 CALM 29.88S FOG LEBANON CLOUDY 65 64 97 S3 29.85F MT WASHINGTON DRZL/FOG 48 48 100 W40G49 N/A VSB 0 $$ VTZ005-007-008-280500- VERMONT CITY SKY/WX TMP DP RH WIND PRES REMARKS ST JOHNSBURY N/A 62 62 100 MISG 29.84R MONTPELIER CLOUDY 62 62 100 E3 29.90S BURLINGTON CLOUDY 67 66 97 SW3 29.85S $$ MAZ007-012-024-CTZ003-RIZ002-NYZ038-NYZ072-280500- SOUTHERN NEW ENGLAND AND NY CITY SKY/WX TMP DP RH WIND PRES REMARKS BOSTON PTCLDY 67 65 93 SW13 29.85F WORCESTER CLOUDY 65 63 93 SW12 29.89F FOG NANTUCKET CLOUDY 66 64 93 SW12 29.90F PROVIDENCE MOCLDY 67 67 100 SW5 29.88F HARTFORD MOCLDY 68 67 96 SW5 29.88F ALBANY FOG 65 63 93 W3 29.88S VSB 1/4 NEW YORK CITY MOCLDY 76 71 85 SW8 29.86F $$ ANZ081-ANZ082-ANZ150-NHZ014-MEZ023>029-280500- COASTAL MARINE OBSERVATIONS STATION/POSITION TIME TEMP WIND PRES WAVE AIR SEA DIR/SP/G HT/PER (UTC) (F) (DEG/KT/KT) (MB) (FT/S) MOUNT DESERT ROC 0400 58 1009.1F MATINICUS ROCK 0400 60 220/ 19/ 19 1008.7F ISLE OF SHOALS 0400 65 220/ 15/ 15 1009.8S JEFFREYS LEDGE 0306 62 N/A 3/ 8 CASHES LEDGE BUO 0250 62 61 1010.2 5/ 6 GEORGES BANK BUO 0250 66 65 1012.7 4/ 8 $$ .............KEY.............. WCI - WIND CHILL TC - TEMPERATURE IN CELSIUS VSB - VISIBILITY IN MILES HX - HEAT INDEX FAIR- INDICATES FEW OR NO CLOUDS BELOW 12,000 FT, WITH NO SIGNIFICANT WEATHER AND/OR OBSTRUCTIONS TO VISIBILITY.

USA.gov is the U.S. government's official web portal to all federal, state and local government web resources and services.